Alexander City, AL

8:06 PM CDT on August 19, 2017 (GMT -0500)
Russell

Weather History for KALX - July, 2013

Change the Weather History Date:

Monday, July 15, 2013

  Actual Average (KAUO) Record (KAUO)
Temperature  
Mean Temperature 82 °F -  
Max Temperature 90 °F 91 °F 102 °F (1980)
Min Temperature 75 °F 67 °F 52 °F (1967)
Cooling Degree Days 18    
Growing Degree Days 32 (Base 50)    
Moisture  
Dew Point 72 °F    
Average Humidity 74    
Maximum Humidity 87    
Minimum Humidity 54    
Precipitation  
Precipitation 0.05 in - - ()
Sea Level Pressure  
Sea Level Pressure 30.21 in    
Wind  
Wind Speed 6 mph (East)    
Max Wind Speed 12 mph    
Max Gust Speed 20 mph    
Visibility 10 miles    
Events Thunderstorm    
Averages and records for this station are not official NWS values.
T = Trace of Precipitation, MM = Missing Value Source: NWS Daily Summary

Daily Weather History Graph

Daily Weather History Graph

Search for Another Location

Airport or City:

Trip Planner

Search our weather history database for the weather conditions in past years. The results will help you decide how hot, cold, wet, or windy it might be!

Date:

Astronomy

Jul. 15, 2013 Rise Set
Actual Time 5:46 AM CDT 7:53 PM CDT
Civil Twilight 5:18 AM CDT 8:20 PM CDT
Nautical Twilight 4:44 AM CDT 8:55 PM CDT
Astronomical Twilight 4:07 AM CDT 9:31 PM CDT
Moon 12:39 PM CDT (7/15) No Moon Set
Length of Visible Light 15h 02m
Length of Day
14h 06m
Waxing Crescent, 45% of the Moon is Illuminated
Jul 15
Waxing Crescent
Jul 15
First Quarter
Jul 22
Full
Jul 29
Last Quarter
Aug 6
New

Hourly Weather History & Observations

Time (CDT) Temp. Heat Index Dew Point Humidity Pressure Visibility Wind Dir Wind Speed Gust Speed Precip Events Conditions
12:15 AM 78.1 °F - 73.9 °F 87% 30.15 in 10.0 mi East 3.5 mph - N/A   Clear
12:35 AM 78.1 °F - 73.9 °F 87% 30.15 in 10.0 mi East 5.8 mph - 0.01 in   Mostly Cloudy
12:55 AM 78.1 °F - 73.9 °F 87% 30.15 in 7.0 mi East 4.6 mph - 0.01 in   Overcast
1:15 AM 78.1 °F - 73.4 °F 85% 30.16 in 10.0 mi East 6.9 mph - N/A   Overcast
1:35 AM 78.1 °F - 73.4 °F 85% 30.16 in 10.0 mi East 8.1 mph - N/A   Overcast
1:55 AM 78.1 °F - 73.4 °F 85% 30.15 in 10.0 mi East 5.8 mph - N/A   Overcast
2:15 AM 78.1 °F - 73.4 °F 85% 30.15 in 10.0 mi East 4.6 mph - N/A   Mostly Cloudy
2:35 AM 78.1 °F - 73.4 °F 85% 30.15 in 10.0 mi East 6.9 mph - N/A   Overcast
2:55 AM 78.1 °F - 73.4 °F 85% 30.16 in 10.0 mi ESE 4.6 mph - N/A   Mostly Cloudy
3:15 AM 78.1 °F - 73.4 °F 85% 30.16 in 10.0 mi ESE 6.9 mph - N/A   Overcast
3:35 AM 78.1 °F - 72.9 °F 84% 30.16 in 10.0 mi East 8.1 mph - N/A   Overcast
3:55 AM 78.1 °F - 72.7 °F 83% 30.16 in 10.0 mi East 5.8 mph - N/A   Overcast
4:15 AM 78.1 °F - 73.4 °F 85% 30.17 in 10.0 mi ESE 5.8 mph - N/A   Overcast
4:35 AM 78.1 °F - 73.4 °F 85% 30.17 in 10.0 mi East 3.5 mph - N/A   Overcast
4:55 AM 78.1 °F - 73.4 °F 85% 30.18 in 10.0 mi East 4.6 mph - N/A   Overcast
5:15 AM 78.1 °F - 72.9 °F 84% 30.19 in 10.0 mi East 4.6 mph - N/A   Overcast
5:35 AM 78.1 °F - 72.7 °F 83% 30.19 in 10.0 mi East 5.8 mph - N/A   Overcast
5:55 AM 78.1 °F - 72.5 °F 83% 30.20 in 10.0 mi East 5.8 mph - N/A   Mostly Cloudy
6:15 AM 78.1 °F - 72.0 °F 81% 30.21 in 10.0 mi East 8.1 mph - 0.01 in   Mostly Cloudy
6:35 AM 78.1 °F - 71.6 °F 80% 30.21 in 10.0 mi East 8.1 mph - 0.01 in   Mostly Cloudy
6:55 AM 78.1 °F - 71.6 °F 80% 30.22 in 10.0 mi East 6.9 mph - 0.01 in   Mostly Cloudy
7:15 AM 78.1 °F - 71.6 °F 80% 30.22 in 10.0 mi East 5.8 mph - N/A   Overcast
7:35 AM 78.1 °F - 71.6 °F 80% 30.23 in 10.0 mi East 9.2 mph - N/A   Overcast
7:55 AM 78.1 °F - 70.9 °F 78% 30.24 in 10.0 mi East 10.4 mph - N/A   Overcast
8:15 AM 78.3 °F - 70.3 °F 77% 30.24 in 10.0 mi East 10.4 mph - N/A   Overcast
8:35 AM 79.0 °F - 70.9 °F 76% 30.24 in 10.0 mi ESE 6.9 mph - N/A   Overcast
8:55 AM 78.4 °F - 70.5 °F 77% 30.24 in 10.0 mi East 10.4 mph - N/A   Overcast
9:15 AM 80.6 °F 84.6 °F 71.6 °F 74% 30.24 in 10.0 mi East 10.4 mph - N/A   Overcast
9:35 AM 81.3 °F 85.2 °F 70.9 °F 70% 30.25 in 10.0 mi ESE 11.5 mph - N/A   Mostly Cloudy
9:55 AM 81.7 °F 85.2 °F 69.6 °F 67% 30.25 in 10.0 mi ESE 8.1 mph - N/A   Mostly Cloudy
10:15 AM 81.9 °F 85.8 °F 70.2 °F 68% 30.26 in 10.0 mi ESE 8.1 mph - N/A   Mostly Cloudy
10:35 AM 81.9 °F 85.6 °F 70.0 °F 67% 30.26 in 10.0 mi East 10.4 mph - N/A   Mostly Cloudy
10:55 AM 81.9 °F 85.8 °F 70.3 °F 68% 30.26 in 10.0 mi ESE 4.6 mph - 0.01 in   Mostly Cloudy
11:15 AM 83.3 °F 87.4 °F 70.2 °F 64% 30.25 in 10.0 mi SE 6.9 mph - N/A   Mostly Cloudy
11:35 AM 83.5 °F 87.2 °F 69.4 °F 62% 30.25 in 10.0 mi ESE 8.1 mph - N/A   Scattered Clouds
11:55 AM 83.3 °F 86.9 °F 69.3 °F 62% 30.25 in 10.0 mi ESE 8.1 mph - N/A   Mostly Cloudy
12:15 PM 84.6 °F 88.2 °F 68.7 °F 59% 30.24 in 10.0 mi SE 10.4 mph 18.4 mph N/A   Scattered Clouds
12:35 PM 87.8 °F 93.4 °F 70.7 °F 57% 30.24 in 10.0 mi ESE 9.2 mph - N/A   Scattered Clouds
12:55 PM 84.7 °F 88.2 °F 68.7 °F 58% 30.23 in 10.0 mi ESE 6.9 mph - N/A   Scattered Clouds
1:15 PM 89.2 °F 94.9 °F 70.9 °F 54% 30.22 in 10.0 mi SE 6.9 mph - N/A   Scattered Clouds
1:35 PM 90.7 °F 97.9 °F 71.8 °F 54% 30.21 in 10.0 mi ESE 8.1 mph - N/A   Clear
1:55 PM 90.7 °F 97.9 °F 72.0 °F 54% 30.20 in 10.0 mi East 5.8 mph - N/A   Scattered Clouds
2:15 PM 89.6 °F 96.2 °F 71.6 °F 55% 30.19 in 10.0 mi ESE 5.8 mph - N/A   Clear
2:35 PM 90.7 °F 97.9 °F 72.1 °F 54% 30.18 in 10.0 mi East 8.1 mph - N/A   Clear
2:55 PM 89.8 °F 98.6 °F 73.6 °F 59% 30.18 in 10.0 mi ESE 6.9 mph - N/A   Scattered Clouds
3:15 PM 90.0 °F 99.0 °F 74.1 °F 59% 30.18 in 10.0 mi East 5.8 mph - N/A   Clear
3:35 PM 90.7 °F 100.1 °F 74.1 °F 58% 30.18 in 10.0 mi ENE 6.9 mph - 0.01 in   Clear
3:55 PM 88.3 °F 96.4 °F 73.6 °F 61% 30.17 in 10.0 mi ENE 5.8 mph - 0.01 in   Scattered Clouds
4:15 PM 90.7 °F 99.0 °F 73.2 °F 56% 30.16 in 10.0 mi East 3.5 mph - N/A   Scattered Clouds
4:35 PM 87.1 °F 94.5 °F 73.2 °F 63% 30.16 in 10.0 mi ESE 6.9 mph - N/A Thunderstorm Thunderstorm
4:55 PM 88.2 °F 95.0 °F 72.3 °F 59% 30.17 in 10.0 mi East 9.2 mph 19.6 mph N/A   Scattered Clouds
5:15 PM 81.9 °F 86.4 °F 71.8 °F 71% 30.17 in 10.0 mi East 6.9 mph - N/A   Scattered Clouds
5:35 PM 83.3 °F 88.7 °F 72.1 °F 69% 30.17 in 10.0 mi East 8.1 mph - N/A Thunderstorm Clear
5:55 PM 83.3 °F 89.3 °F 73.0 °F 71% 30.19 in 10.0 mi East 3.5 mph - N/A Thunderstorm Clear
6:15 PM 83.3 °F 89.3 °F 72.9 °F 71% 30.19 in 10.0 mi East 4.6 mph - N/A Thunderstorm Clear
6:35 PM 82.2 °F 87.6 °F 72.9 °F 73% 30.18 in 10.0 mi East 4.6 mph - N/A Thunderstorm Clear
6:55 PM 81.9 °F 87.3 °F 73.2 °F 75% 30.19 in 10.0 mi ENE 5.8 mph - N/A   Clear
7:15 PM 81.5 °F 85.3 °F 70.3 °F 69% 30.20 in 10.0 mi ESE 10.4 mph - N/A   Clear
7:35 PM 80.6 °F 84.2 °F 70.9 °F 72% 30.21 in 10.0 mi ESE 4.6 mph - N/A   Scattered Clouds
7:55 PM 80.6 °F 84.9 °F 72.3 °F 76% 30.22 in 10.0 mi East 4.6 mph - N/A   Scattered Clouds
8:15 PM 80.6 °F 84.9 °F 72.5 °F 76% 30.22 in 10.0 mi East 8.1 mph - N/A   Clear
8:35 PM 78.3 °F - 70.7 °F 77% 30.22 in 10.0 mi East 4.6 mph - N/A   Clear
8:55 PM 78.1 °F - 71.2 °F 79% 30.23 in 10.0 mi ENE 3.5 mph - 0.01 in   Clear
9:15 PM 78.1 °F - 71.2 °F 79% 30.24 in 10.0 mi Calm Calm - N/A   Clear
9:35 PM 78.1 °F - 71.6 °F 80% 30.24 in 10.0 mi Calm Calm - N/A   Clear
9:55 PM 78.1 °F - 72.5 °F 83% 30.23 in 10.0 mi East 4.6 mph - N/A   Clear
10:15 PM 78.1 °F - 72.5 °F 83% 30.24 in 10.0 mi East 4.6 mph - N/A   Clear
10:35 PM 77.5 °F - 72.5 °F 84% 30.24 in 10.0 mi ENE 3.5 mph - N/A   Clear
10:55 PM 77.2 °F - 72.5 °F 85% 30.25 in 10.0 mi Calm Calm - N/A   Clear
11:15 PM 75.7 °F - 71.8 °F 87% 30.25 in 10.0 mi ENE 4.6 mph - N/A   Clear
11:35 PM 75.9 °F - 71.8 °F 87% 30.25 in 10.0 mi ENE 5.8 mph - N/A   Clear
11:55 PM 75.9 °F - 72.0 °F 87% 30.25 in 10.0 mi ENE 3.5 mph - N/A   Clear